Weather History for Laramie, WY

Change the Weather History Date:

Saturday, August 10, 2013

  Actual Average Record
Temperature  
Mean Temperature 60 °F 64 °F  
Max Temperature 79 °F 79 °F 90 °F (1969)
Min Temperature 40 °F 48 °F 33 °F (1985)
Degree Days  
Heating Degree Days 5 2  
Month to date heating degree days 23 20  
Since 1 June heating degree days 148 330  
Since 1 July heating degree days 45 89  
Cooling Degree Days 0 1  
Month to date cooling degree days 10 10  
Year to date cooling degree days 104 57  
Since 1 June cooling degree days 104 57  
Growing Degree Days 10 (Base 50)    
Moisture  
Dew Point 38 °F    
Average Humidity 56    
Maximum Humidity 93    
Minimum Humidity 19    
Precipitation  
Precipitation 0.00 in 0.05 in 0.46 in (1997)
Month to date precipitation 0.12 0.47  
Year to date precipitation 5.42 7.39  
Sea Level Pressure  
Sea Level Pressure 30.04 in    
Wind  
Wind Speed 6 mph (SSW)    
Max Wind Speed 21 mph    
Max Gust Speed 28 mph    
Visibility 10 miles    
Events      
T = Trace of Precipitation, MM = Missing Value Source: NWS Daily Summary

Daily Weather History Graph

Daily Weather History Graph

Search for Another Location

Airport:

Trip Planner

Search our weather history database for the weather conditions in past years. The results will help you decide how hot, cold, wet, or windy it might be!

Date:

Astronomy

Aug. 10, 2013 Rise Set
Actual Time 6:07 AM MDT 8:08 PM MDT
Civil Twilight 5:36 AM MDT 8:38 PM MDT
Nautical Twilight 5:00 AM MDT 9:14 PM MDT
Astronomical Twilight 4:19 AM MDT 9:54 PM MDT
Moon 9:59 AM MDT (8/10) 9:47 PM MDT (8/10)
Length of Visible Light 15h 01m
Length of Day
14h 01m
Waxing Crescent, 14% of the Moon is Illuminated
Aug 10
Waxing Crescent
Aug 14
First Quarter
Aug 20
Full
Aug 28
Last Quarter
Sep 5
New

Hourly Weather History & Observations

Time (MDT) Temp. Windchill Dew Point Humidity Pressure Visibility Wind Dir Wind Speed Gust Speed Precip Events Conditions
12:53 AM 50.0 °F - 43.0 °F 77% 30.06 in 10.0 mi Calm Calm - N/A   Partly Cloudy
1:53 AM 46.9 °F - 41.0 °F 80% 30.08 in 10.0 mi South 9.2 mph - N/A   Clear
2:53 AM 45.0 °F 43.5 °F 41.0 °F 86% 30.11 in 10.0 mi South 3.5 mph - N/A   Clear
3:53 AM 45.0 °F 40.6 °F 41.0 °F 86% 30.13 in 10.0 mi South 8.1 mph - N/A   Clear
4:53 AM 43.0 °F - 39.9 °F 89% 30.11 in 10.0 mi Calm Calm - N/A   Clear
5:53 AM 41.0 °F 36.4 °F 39.0 °F 93% 30.10 in 10.0 mi SSE 6.9 mph - N/A   Clear
6:53 AM 45.0 °F 41.2 °F 39.9 °F 82% 30.12 in 10.0 mi South 6.9 mph - N/A   Clear
7:53 AM 51.1 °F - 42.1 °F 71% 30.11 in 10.0 mi SE 5.8 mph - N/A   Clear
8:53 AM 61.0 °F - 44.1 °F 54% 30.07 in 10.0 mi South 6.9 mph - N/A   Clear
9:53 AM 66.9 °F - 42.1 °F 40% 30.05 in 10.0 mi SSE 4.6 mph - N/A   Clear
10:53 AM 70.0 °F - 37.9 °F 31% 30.05 in 10.0 mi Calm Calm - N/A   Clear
11:53 AM 75.0 °F - 37.0 °F 25% 30.03 in 10.0 mi Variable 4.6 mph - N/A   Clear
12:53 PM 75.9 °F - 36.0 °F 23% 30.02 in 10.0 mi Calm Calm - N/A   Clear
1:53 PM 78.1 °F - 34.0 °F 20% 29.99 in 10.0 mi Variable 5.8 mph - N/A   Clear
2:53 PM 75.9 °F - 35.1 °F 23% 30.00 in 10.0 mi Variable 4.6 mph - N/A   Mostly Cloudy
3:53 PM 77.0 °F - 32.0 °F 19% 29.99 in 10.0 mi Variable 4.6 mph - N/A   Partly Cloudy
4:53 PM 75.9 °F - 33.1 °F 21% 29.99 in 10.0 mi Calm Calm - N/A   Scattered Clouds
5:53 PM 73.9 °F - 32.0 °F 21% 30.00 in 10.0 mi NNE 8.1 mph - N/A   Clear
6:53 PM 73.9 °F - 32.0 °F 21% 30.00 in 10.0 mi West 18.4 mph - N/A   Mostly Cloudy
7:53 PM 70.0 °F - 35.1 °F 28% 30.00 in 10.0 mi WNW 15.0 mph - N/A   Overcast
8:53 PM 66.0 °F - 37.9 °F 36% 29.99 in 10.0 mi NW 9.2 mph - N/A   Mostly Cloudy
9:53 PM 62.1 °F - 39.9 °F 44% 30.00 in 10.0 mi Calm Calm - N/A   Overcast
10:53 PM 57.9 °F - 41.0 °F 53% 30.01 in 10.0 mi SW 8.1 mph - N/A   Partly Cloudy
11:53 PM 55.9 °F - 43.0 °F 62% 29.99 in 10.0 mi West 8.1 mph - N/A   Clear